Location: Chuathbaluk
(61.5726°N, 159.2454°W)
Time: 04:12:55
(UTC+00:00)

Transit 2A - Pass Details

Date: 27 November 2020
Orbit: 599 x 960 km, 66.7° (Epoch: 26 January)

Event Time Altitude Azimuth Distance (km) Brightness Sun altitude
Rises 10:03:58 0° 293° (WNW) 3,509 - -49.5°
Reaches altitude 10° 10:06:38 10° 298° (WNW) 2,519 - -49.5°
Maximum altitude 10:12:23 59° 18° (NNE) 932 - -49.6°
Drops below altitude 10° 10:17:32 10° 98° (E) 2,270 - -49.7°
Sets 10:19:50 0° 102° (ESE) 3,136 - -49.7°
